Wind_Speed
34 33 31 29 27 26 25 23 22 21 23 22 20 20 21 23 23 24 24 23 23 23 23 23 23 24 25 26 26 27 28 29 29 30 30 31 31 32
38 36 34 32 30 29 27 26 23 21 21 22 21 20 21 22 23 24 24 25 25 25 25 24 25 25 25 26 26 26 27 27 27 28 29 29 30 30
42 40 38 35 33 31 29 28 25 23 21 22 21 21 20 21 23 24 25 26 26 26 25 25 26 25 26 26 26 25 25 26 27 27 27 27 28 29
45 43 41 39 36 34 32 30 27 24 22 22 22 21 21 21 22 24 25 26 26 26 26 26 26 26 25 25 25 24 25 25 26 26 26 27 27 27
49 46 44 41 38 36 34 32 29 26 23 23 23 21 21 20 21 23 24 25 25 25 26 26 25 25 25 24 24 23 23 24 24 24 25 26 25 26
52 49 47 44 41 39 36 34 32 29 25 24 23 21 20 20 21 22 23 24 23 23 23 23 22 22 23 22 22 23 23 23 23 23 24 25 25 25
55 52 49 46 43 40 38 36 33 30 27 25 23 22 20 20 20 20 21 21 21 21 22 21 21 20 21 21 21 22 22 22 22 22 23 23 24 24
57 54 51 48 45 42 40 37 35 31 28 25 24 22 21 20 19 19 20 20 20 21 21 21 21 20 20 21 21 22 22 22 22 22 21 22 22 22
59 56 52 49 46 44 42 39 36 33 29 26 24 22 20 19 18 19 19 19 19 19 19 20 21 21 20 20 20 20 20 20 20 19 19 18 18 18
62 58 54 51 48 45 43 40 37 34 30 27 24 22 21 20 19 19 19 19 19 18 18 19 19 20 21 20 20 19 19 18 17 17 16 16 15 15
62 61 57 52 49 46 44 41 38 34 31 28 26 23 21 20 19 19 19 19 19 18 18 18 18 19 20 20 20 19 18 17 17 16 16 15 14 14
57 59 58 54 50 47 44 41 38 35 31 29 26 24 21 19 19 19 19 19 19 18 18 18 19 20 20 20 19 19 18 17 16 16 15 15 14 14
50 55 57 55 51 48 44 42 39 36 33 30 27 24 21 19 19 18 18 18 19 19 18 18 18 19 20 19 19 18 17 17 16 16 15 14 14 14
44 49 53 54 51 48 45 43 40 37 34 31 27 24 22 20 19 18 17 17 17 17 18 18 18 19 20 19 19 18 17 17 16 16 15 14 13 13
41 46 50 51 49 47 44 42 39 37 34 31 27 24 22 20 18 18 18 18 17 17 18 19 19 20 20 19 19 18 18 17 16 16 15 14 14 14
40 45 49 50 47 45 43 40 38 35 33 30 27 24 22 19 18 18 19 19 19 19 19 20 20 20 20 20 19 19 18 17 16 16 16 16 16 18
40 46 50 51 47 45 42 40 38 35 32 28 25 23 21 20 20 20 20 20 20 20 20 20 21 21 20 19 19 18 17 17 16 17 17 19 20 21
39 47 51 50 48 45 43 40 37 33 30 27 24 23 21 21 20 20 21 20 20 21 21 22 22 21 21 20 19 18 18 18 18 19 21 22 24 26
40 50 51 49 48 46 43 40 35 32 29 26 24 23 22 21 21 21 21 21 21 22 23 23 23 22 21 20 19 19 19 20 21 22 24 26 28 30
40 49 50 49 47 44 41 39 35 31 28 26 24 23 22 21 21 21 22 22 23 24 24 23 23 22 21 20 20 20 21 22 23 25 27 29 31 32
39 48 49 49 48 44 40 37 34 30 28 26 25 23 22 22 22 23 23 23 24 24 24 23 22 21 21 21 21 21 22 24 26 27 29 30 31 32
39 45 47 48 45 41 38 35 32 30 28 26 25 24 23 23 23 24 25 25 25 25 24 23 22 22 22 22 22 23 25 26 28 29 30 31 31 32
37 41 43 43 42 39 36 33 31 29 28 26 25 24 24 24 25 26 26 26 25 24 23 23 23 23 23 23 24 25 27 28 28 29 30 30 30 31
Wind_Direction
254 256 259 264 269 274 279 282 285 289 292 291 286 275 263 254 247 239 237 239 240 241 242 243 245 247 249 250 250 250 249 247 245 246 247 247 248 248
252 254 257 261 266 270 275 278 281 285 288 289 285 275 263 253 246 241 238 237 239 240 242 245 248 250 252 253 252 251 249 247 247 246 246 247 247 247
251 252 255 258 262 266 270 273 276 280 283 285 283 275 265 254 247 242 239 238 240 242 245 248 250 252 253 254 254 252 249 247 246 245 245 246 246 245
250 250 252 255 258 262 265 267 270 275 279 281 280 276 268 258 249 242 240 240 241 244 247 249 251 252 253 255 254 252 251 249 245 244 244 245 245 247
248 249 250 252 254 257 260 262 264 268 273 277 276 274 269 260 249 243 242 242 243 245 247 250 252 252 252 253 251 250 251 248 246 245 245 246 245 245
246 246 247 249 251 253 255 257 259 263 267 272 274 271 266 260 252 246 244 243 245 246 247 249 250 250 249 248 247 246 247 247 246 245 246 245 243 244
243 243 244 245 247 249 251 252 255 258 262 266 269 267 262 257 251 246 244 244 245 245 245 247 250 249 249 247 247 243 245 244 244 245 245 245 244 244
240 240 241 242 243 245 246 248 250 253 256 260 263 262 258 255 250 245 244 244 244 244 245 246 247 249 250 249 244 243 245 245 244 244 244 245 244 244
238 237 237 237 239 241 242 244 246 249 251 254 257 257 255 251 246 244 243 243 241 241 242 242 245 247 249 246 241 240 240 239 238 239 240 239 238 237
235 234 234 234 235 236 238 241 243 244 246 249 251 252 250 247 244 242 241 242 240 242 244 245 245 244 244 242 239 235 233 232 231 230 229 229 230 231
232 231 231 231 231 233 235 238 238 239 242 246 246 247 246 243 242 242 242 240 241 245 246 246 244 242 238 237 234 230 227 225 225 226 226 228 229 231
228 227 227 227 227 230 232 233 234 236 238 239 241 242 241 240 239 241 242 239 238 242 245 245 244 241 238 232 223 220 221 223 224 224 225 226 228 231
224 222 222 222 223 226 228 229 231 233 233 233 236 236 236 238 239 240 242 241 238 240 244 243 240 235 229 221 216 215 217 219 220 221 223 225 227 231
220 217 215 215 217 221 224 226 229 229 229 229 231 232 233 235 236 238 239 239 238 239 240 236 232 227 218 213 211 211 213 214 214 217 221 225 229 236
216 211 208 207 210 216 220 222 223 224 225 225 227 230 231 232 233 236 236 236 239 236 232 230 225 218 210 209 210 210 211 211 214 219 225 231 240 248
209 203 200 199 203 208 213 216 217 217 218 220 223 227 229 229 230 232 233 235 234 231 227 224 217 210 207 209 210 210 212 215 221 228 237 246 253 259
204 197 192 193 196 202 206 210 210 210 212 214 218 223 225 226 227 229 229 228 225 222 219 214 207 204 205 207 210 213 217 224 232 242 251 258 263 267
200 193 186 187 190 195 200 202 202 204 207 210 215 220 222 222 222 222 221 220 218 214 209 204 202 202 204 208 214 221 228 236 244 252 259 265 268 271
195 190 184 183 186 190 193 196 198 201 205 208 213 216 217 216 216 215 213 211 209 204 199 197 200 203 208 214 221 230 238 246 253 260 265 270 272 274
192 189 183 181 182 186 189 191 194 198 201 205 208 210 210 210 209 207 205 203 201 198 197 199 203 208 214 222 230 238 247 255 262 268 272 274 276 277
186 183 180 179 180 183 186 188 191 195 199 202 203 204 206 205 204 203 201 200 198 197 199 204 209 216 224 232 241 249 258 265 271 275 277 278 279 280
176 177 177 177 178 181 184 186 189 193 196 198 199 201 202 201 201 201 199 198 198 201 205 211 218 226 235 243 253 261 268 273 276 279 280 281 282 283
168 170 172 174 177 179 180 183 188 192 194 197 198 199 198 199 200 200 199 199 203 207 213 220 228 236 245 254 262 268 272 276 279 281 282 283 284 285
Height
5766 5768 5770 5771 5772 5773 5773 5773 5772 5770 5768 5766 5765 5763 5762 5763 5765 5767 5770 5773 5775 5778 5781 5783 5785 5787 5789 5790 5791 5793 5795 5797 5799 5801 5803 5805 5807 5809
5756 5758 5761 5763 5764 5765 5765 5765 5765 5765 5763 5760 5759 5758 5757 5758 5759 5761 5764 5767 5769 5772 5775 5777 5779 5780 5782 5783 5784 5786 5787 5789 5791 5793 5795 5797 5799 5801
5744 5748 5751 5753 5755 5756 5757 5758 5758 5758 5757 5756 5754 5752 5752 5752 5754 5755 5758 5761 5763 5766 5768 5770 5772 5773 5775 5776 5777 5779 5780 5782 5784 5786 5787 5789 5791 5793
5732 5736 5740 5743 5746 5748 5749 5750 5751 5751 5751 5750 5748 5747 5746 5747 5748 5750 5752 5754 5757 5759 5761 5763 5765 5766 5768 5769 5770 5772 5773 5775 5777 5779 5781 5782 5784 5786
5718 5723 5728 5732 5735 5738 5741 5742 5743 5744 5744 5744 5743 5742 5741 5741 5742 5744 5746 5748 5750 5753 5755 5756 5758 5760 5761 5763 5764 5765 5767 5769 5770 5772 5774 5775 5777 5779
5704 5710 5715 5720 5724 5728 5731 5733 5735 5737 5737 5738 5737 5736 5736 5736 5736 5738 5740 5742 5744 5746 5748 5750 5751 5753 5754 5756 5757 5759 5761 5762 5764 5765 5767 5769 5770 5772
5688 5695 5701 5707 5712 5717 5721 5724 5727 5729 5730 5731 5731 5730 5730 5730 5731 5732 5734 5736 5738 5740 5741 5744 5745 5747 5748 5750 5751 5753 5754 5756 5757 5759 5760 5762 5763 5765
5671 5680 5687 5694 5700 5705 5710 5714 5718 5720 5723 5724 5725 5725 5725 5725 5725 5727 5729 5731 5732 5734 5735 5737 5739 5740 5742 5743 5745 5747 5748 5750 5751 5753 5754 5756 5757 5759
5654 5663 5672 5680 5687 5693 5699 5704 5708 5712 5715 5717 5718 5719 5719 5720 5720 5721 5723 5725 5726 5728 5729 5731 5733 5734 5736 5738 5739 5741 5742 5744 5746 5747 5749 5750 5752 5754
5636 5647 5657 5666 5674 5681 5688 5693 5698 5703 5706 5709 5711 5712 5713 5714 5715 5716 5717 5719 5721 5722 5724 5725 5727 5729 5730 5732 5734 5736 5737 5739 5741 5743 5745 5746 5748 5750
5617 5630 5641 5652 5661 5669 5676 5683 5688 5693 5697 5701 5704 5706 5707 5708 5709 5710 5712 5713 5715 5716 5718 5720 5721 5723 5725 5727 5729 5731 5733 5735 5737 5739 5741 5743 5745 5746
5600 5613 5626 5637 5647 5656 5665 5672 5678 5684 5689 5693 5696 5698 5700 5701 5703 5704 5706 5708 5709 5711 5713 5715 5716 5718 5720 5722 5724 5727 5730 5732 5734 5736 5738 5739 5741 5743
5584 5596 5610 5623 5634 5644 5653 5661 5668 5674 5680 5685 5689 5691 5693 5695 5696 5698 5700 5702 5704 5705 5707 5709 5711 5713 5716 5718 5720 5723 5726 5728 5730 5732 5734 5736 5738 5739
5571 5583 5595 5609 5621 5632 5642 5650 5658 5665 5671 5677 5681 5684 5687 5689 5690 5692 5694 5696 5698 5700 5702 5704 5706 5709 5712 5715 5717 5720 5723 5725 5727 5730 5731 5733 5734 5735
5560 5571 5584 5597 5610 5621 5631 5640 5649 5656 5663 5669 5673 5677 5680 5682 5684 5686 5688 5690 5693 5695 5697 5700 5702 5705 5708 5711 5714 5717 5720 5722 5724 5726 5728 5730 5731 5732
5551 5561 5573 5587 5600 5611 5622 5631 5640 5648 5655 5660 5665 5669 5673 5675 5678 5681 5683 5685 5688 5690 5693 5696 5698 5702 5705 5709 5712 5714 5717 5719 5721 5723 5724 5726 5726 5727
5541 5552 5564 5578 5590 5602 5614 5624 5632 5641 5647 5653 5658 5663 5666 5669 5672 5675 5678 5681 5683 5686 5689 5692 5695 5699 5703 5706 5709 5711 5714 5715 5717 5718 5719 5720 5721 5721
5534 5544 5556 5570 5583 5596 5607 5617 5626 5634 5640 5646 5651 5656 5660 5663 5667 5670 5673 5676 5679 5682 5685 5689 5692 5696 5700 5703 5706 5708 5710 5711 5713 5714 5714 5714 5714 5714
5527 5538 5549 5563 5577 5590 5601 5611 5620 5628 5634 5640 5646 5651 5655 5658 5662 5665 5668 5672 5675 5679 5682 5686 5690 5693 5696 5699 5702 5704 5706 5707 5708 5708 5708 5708 5707 5706
5523 5533 5545 5559 5573 5585 5596 5606 5615 5622 5629 5635 5641 5645 5649 5653 5657 5661 5664 5668 5672 5675 5679 5683 5687 5690 5693 5695 5697 5699 5700 5701 5701 5701 5701 5700 5698 5697
5521 5532 5544 5558 5571 5582 5593 5602 5610 5618 5624 5630 5636 5640 5645 5649 5653 5657 5661 5665 5669 5673 5677 5680 5683 5686 5689 5691 5692 5693 5694 5694 5694 5693 5692 5690 5689 5687
5523 5534 5546 5558 5570 5580 5590 5599 5607 5615 5621 5627 5632 5636 5641 5646 5650 5654 5658 5662 5666 5670 5673 5677 5679 5682 5684 5685 5686 5686 5686 5686 5685 5684 5682 5681 5678 5676
5528 5538 5549 5560 5571 5580 5590 5598 5606 5612 5618 5623 5628 5633 5638 5643 5647 5651 5655 5659 5663 5667 5670 5672 5675 5677 5678 5679 5679 5679 5678 5678 5676 5675 5673 5671 5669 5666